JR0ZFO-13 Weather Reports


time (UTC)temp
C
wind
direction
speed
KPH
gust
KPH
rain 1hr
cm
rain 24hr
cm
rain mn
cm
humidity
%
barometer
mb
20260502194816 11 63 0.0 1.6 0.00 0.00 0.00 84 1015.9
20260502194318 11 63 0.0 0.0 0.00 0.00 0.00 84 1015.8
20260502193816 11 63 0.0 0.0 0.00 0.00 0.00 83 1015.7
20260502193314 11 63 0.0 0.0 0.00 0.00 0.00 83 1015.7
20260502192854 11 63 0.0 0.0 0.00 0.00 0.00 83 1015.8
20260502192331 11 63 0.0 0.0 0.00 0.00 0.00 83 1015.7
20260502191827 11 63 0.0 0.0 0.00 0.00 0.00 83 1015.5
20260502191326 11 62 0.0 0.0 0.00 0.00 0.00 83 1015.8
20260502190825 11 62 0.0 4.8 0.00 0.00 0.00 82 1015.9
20260502190324 11 63 0.0 4.8 0.00 0.00 0.00 83 1015.8
20260502185822 11 56 3.2 4.8 0.00 0.00 0.00 83 1015.7
20260502185319 11 63 0.0 3.2 0.00 0.00 0.00 83 1015.8
20260502184819 11 68 0.0 3.2 0.00 0.00 0.00 83 1015.8
20260502184317 11 56 1.6 3.2 0.00 0.00 0.00 83 1015.9
20260502183815 11 217 0.0 1.6 0.00 0.00 0.00 84 1015.9
20260502183333 10 217 0.0 1.6 0.00 0.00 0.00 85 1016.0
20260502182833 10 217 0.0 0.0 0.00 0.00 0.00 84 1015.9
20260502182332 11 217 0.0 0.0 0.00 0.00 0.00 84 1015.9
20260502181850 11 217 0.0 1.6 0.00 0.89 0.00 84 1015.7
20260502181348 11 217 0.0 3.2 0.00 0.89 0.00 84 1015.8
20260502180847 11 229 1.6 3.2 0.00 0.89 0.00 84 1015.8
20260502180345 11 65 0.0 1.6 0.00 0.89 0.00 84 1015.7
20260502170324 11 65 0.0 1.6 0.00 1.91 0.00 81 1015.9
20260502164344 10 64 0.0 0.0 0.00 1.91 0.00 83 1016.3
20260502163822 10 64 0.0 0.0 0.00 1.91 0.00 83 1016.4
20260502163319 10 64 0.0 0.0 0.00 1.91 0.00 82 1016.4
20260502162818 10 64 0.0 0.0 0.00 1.91 0.00 82 1016.4
20260502162316 10 64 0.0 0.0 0.00 1.91 0.00 82 1016.3
20260502161814 10 64 0.0 0.0 0.00 2.49 0.00 81 1016.3
20260502161313 10 64 0.0 0.0 0.00 2.49 0.00 81 1016.4
20260502160832 10 64 0.0 0.0 0.00 2.49 0.00 82 1016.5
20260502160353 10 64 0.0 0.0 0.00 2.49 0.00 82 1016.6
20260502152315 10 64 0.0 0.0 0.00 2.49 0.00 84 1016.4
20260502151834 9 64 0.0 0.0 0.00 2.49 0.51 84 1016.5
20260502151333 9 64 0.0 0.0 0.00 2.49 0.51 84 1016.7
20260502150851 10 64 0.0 0.0 0.00 2.49 0.51 83 1016.7
20260502150328 10 64 0.0 0.0 0.00 2.49 0.51 83 1016.8
20260502130333 11 193 0.0 0.0 0.00 2.49 0.51 77 1016.0
20260502123325 12 193 0.0 0.0 0.00 2.49 0.51 73 1016.0
20260502122824 12 193 0.0 0.0 0.00 2.49 0.51 72 1016.0
20260502122322 13 193 0.0 0.0 0.00 2.49 0.51 72 1015.8
20260502121820 13 189 0.0 0.0 0.00 2.49 0.51 73 1015.9
20260502121318 13 189 0.0 0.0 0.00 2.49 0.51 73 1015.8
20260502120815 13 189 0.0 0.0 0.00 2.49 0.51 72 1015.8
20260502120318 13 191 0.0 0.0 0.00 2.49 0.51 72 1015.9
20260502115815 13 166 0.0 0.0 0.00 2.49 0.51 71 1015.7
20260502115313 13 165 0.0 0.0 0.00 2.49 0.51 71 1015.5
20260502114832 13 163 0.0 0.0 0.00 2.49 0.51 71 1015.5
20260502114329 13 163 0.0 0.0 0.00 2.49 0.51 72 1015.4
20260502113828 13 163 0.0 0.0 0.00 2.49 0.51 72 1015.2
20260502113351 13 160 0.0 0.0 0.00 2.49 0.51 72 1015.2
20260502112828 13 158 0.0 1.6 0.00 2.49 0.51 71 1015.1
20260502112346 14 158 0.0 1.6 0.00 2.49 0.51 71 1015.1
20260502111844 14 65 0.0 0.0 0.00 2.49 0.51 69 1015.1
20260502111321 15 65 0.0 1.6 0.00 2.49 0.51 69 1015.0
20260502110819 15 65 0.0 3.2 0.00 2.49 0.51 68 1015.0
20260502110318 15 52 0.0 4.8 0.00 2.49 0.51 67 1015.0
20260502105838 15 52 3.2 6.4 0.00 2.49 0.51 67 1014.9
20260502105316 15 39 1.6 6.4 0.00 2.49 0.51 67 1014.8
20260502104815 15 44 0.0 0.0 0.00 2.49 0.51 67 1014.8
20260502104314 15 12 0.0 0.0 0.00 2.49 0.51 66 1014.8
20260502103833 15 58 0.0 0.0 0.00 2.49 0.51 67 1014.5
20260502103329 15 224 0.0 0.0 0.00 2.49 0.51 67 1014.4
20260502102827 15 224 0.0 0.0 0.00 2.49 0.51 67 1014.3
20260502102326 16 224 0.0 0.0 0.00 2.49 0.51 66 1014.3
20260502101845 16 224 0.0 0.0 0.00 6.20 0.51 66 1014.3
20260502101343 16 224 0.0 0.0 0.00 6.20 0.51 64 1014.2
20260502100820 16 224 0.0 0.0 0.00 6.20 0.51 64 1014.3
20260502100339 16 202 0.0 0.0 0.00 6.20 0.51 63 1014.2
20260502091327 18 35 3.2 6.4 0.00 11.40 0.51 51 1013.4
20260502090826 18 50 1.6 6.4 0.00 11.40 0.51 51 1013.3
20260502090325 18 302 1.6 8.0 0.00 11.40 0.51 51 1013.3
20260502071318 21 76 9.7 24.1 0.00 21.41 0.51 42 1012.2
20260502070816 21 29 11.3 30.6 0.00 21.41 0.51 42 1012.1
20260502070315 21 60 14.5 33.8 0.00 21.41 0.51 41 1012.1
20260502065815 21 16 8.0 24.1 0.00 21.41 0.51 41 1012.0
20260502065314 21 25 12.9 24.1 0.00 21.41 0.51 40 1012.0
20260502064833 21 70 14.5 27.4 0.00 21.41 0.51 39 1011.9
20260502064331 21 35 11.3 37.0 0.00 21.41 0.51 39 1012.0
20260502063829 21 71 12.9 37.0 0.00 21.41 0.51 40 1012.1
20260502063327 21 257 12.9 30.6 0.00 21.41 0.51 40 1012.1
20260502062847 21 88 16.1 30.6 0.00 21.41 0.51 39 1011.9
20260502062324 21 52 12.9 27.4 0.00 21.41 0.51 39 1011.9
20260502061822 21 22 14.5 27.4 0.00 21.41 0.51 39 1012.1
20260502061325 21 16 14.5 30.6 0.00 21.41 0.51 39 1012.1
20260502060824 21 20 14.5 30.6 0.00 21.41 0.51 39 1011.9
20260502060322 21 92 12.9 25.7 0.00 21.41 0.51 39 1012.0
20260502055822 21 124 11.3 27.4 0.00 21.41 0.51 40 1011.7
20260502055320 21 123 14.5 30.6 0.00 21.41 0.51 40 1011.8
20260502054818 21 7 11.3 30.6 0.00 21.41 0.51 39 1011.7
20260502054317 21 46 12.9 27.4 0.00 21.41 0.51 39 1011.8
20260502053813 21 44 12.9 32.2 0.00 21.41 0.51 39 1011.8
20260502053312 21 171 17.7 32.2 0.00 21.41 0.51 38 1011.6
20260502052833 21 78 12.9 27.4 0.00 21.41 0.51 39 1011.5
20260502052352 21 44 12.9 32.2 0.00 21.41 0.51 39 1011.6
20260502051829 21 106 17.7 32.2 0.00 21.41 0.51 38 1011.6
20260502051328 21 57 11.3 30.6 0.00 21.41 0.51 37 1011.5
20260502050826 21 68 19.3 33.8 0.00 21.41 0.51 38 1011.4
20260502050324 21 36 20.9 33.8 0.00 21.41 0.51 38 1011.3
20260502045823 21 27 16.1 35.4 0.00 21.41 0.51 39 1011.2
20260502045322 21 65 17.7 35.4 0.00 21.41 0.51 38 1011.2
20260502044821 21 358 9.7 35.4 0.00 21.41 0.51 39 1011.3
20260502044319 21 63 16.1 30.6 0.00 21.41 0.51 39 1011.4
20260502043817 21 40 11.3 30.6 0.00 21.41 0.51 39 1011.5
20260502043337 21 61 16.1 29.0 0.00 21.41 0.51 38 1011.6
20260502042819 21 116 11.3 30.6 0.00 21.41 0.51 40 1011.5
20260502042317 21 39 16.1 43.5 0.00 21.41 0.51 38 1011.2
20260502041816 21 49 9.7 43.5 0.00 21.41 0.51 40 1011.3
20260502041314 21 49 14.5 35.4 0.00 21.41 0.51 39 1011.0
20260502040813 21 53 14.5 32.2 0.00 21.41 0.51 39 1011.1
20260502040331 21 338 14.5 32.2 0.00 21.41 0.51 38 1011.3
20260502035831 21 51 14.5 30.6 0.00 21.41 0.51 39 1011.2
20260502035330 21 43 12.9 29.0 0.00 21.41 0.51 39 1011.2
20260502034830 21 24 11.3 29.0 0.00 21.41 0.51 39 1011.1
20260502034329 21 334 11.3 29.0 0.00 21.41 0.51 39 1011.1
20260502033849 21 25 12.9 29.0 0.00 21.41 0.51 39 1011.2
20260502033327 21 84 16.1 29.0 0.00 21.41 0.51 39 1011.2
20260502032825 21 42 14.5 29.0 0.00 21.41 0.51 39 1011.1
20260502032324 20 32 16.1 30.6 0.00 21.41 0.51 38 1011.0
20260502031823 20 44 14.5 29.0 0.00 21.49 0.51 38 1011.0
20260502031321 20 58 14.5 27.4 0.00 21.49 0.51 38 1011.2
20260502030819 21 55 12.9 27.4 0.00 21.49 0.51 40 1011.2
20260502030316 20 158 14.5 29.0 0.00 21.49 0.51 39 1011.0
20260502025814 20 97 9.7 25.7 0.00 21.49 0.51 39 1011.0
20260502025313 20 51 11.3 24.1 0.00 21.49 0.51 39 1010.9
20260502024833 20 65 11.3 32.2 0.00 21.49 0.51 39 1010.8
20260502024332 20 51 14.5 32.2 0.00 21.49 0.51 39 1010.8
20260502023813 20 60 9.7 33.8 0.00 21.49 0.51 39 1010.7
20260502023349 20 143 17.7 33.8 0.00 21.49 0.51 38 1010.7
20260502022848 20 54 8.0 30.6 0.00 21.49 0.51 39 1010.8
20260502022330 20 10 11.3 33.8 0.00 21.49 0.51 39 1010.7
20260502021828 20 183 16.1 33.8 0.00 21.49 0.51 37 1010.9
20260502021346 20 51 11.3 25.7 0.00 21.49 0.51 39 1010.9
20260502020824 20 123 12.9 32.2 0.00 21.49 0.51 39 1010.5
20260502020341 20 72 12.9 30.6 0.00 21.49 0.51 38 1010.4
20260502015817 20 44 11.3 32.2 0.00 21.49 0.51 38 1010.6
20260502015314 20 124 12.9 32.2 0.00 21.49 0.51 38 1010.6
20260502014812 20 58 11.3 37.0 0.00 21.49 0.51 39 1010.5
20260502014332 19 63 9.7 37.0 0.00 21.49 0.51 39 1010.5
20260502013851 20 297 16.1 32.2 0.00 21.49 0.51 40 1010.5
20260502013328 19 57 16.1 27.4 0.00 21.49 0.51 39 1010.5
20260502012828 19 39 11.3 27.4 0.00 21.49 0.51 40 1010.5
20260502012349 19 134 9.7 22.5 0.00 21.49 0.51 40 1010.3
20260502011825 19 64 8.0 20.9 0.00 22.10 0.51 42 1010.3
20260502011325 19 58 9.7 19.3 0.00 22.10 0.51 41 1010.4
20260502010822 18 57 4.8 20.9 0.00 22.10 0.51 42 1010.3
20260502010320 18 27 11.3 20.9 0.00 22.10 0.51 41 1010.3
20260502005817 18 35 9.7 20.9 0.00 22.10 0.51 42 1010.3
20260502005314 18 44 4.8 19.3 0.00 22.10 0.51 43 1010.2
20260502004813 18 104 4.8 22.5 0.00 22.10 0.51 44 1010.3
20260502004354 18 105 6.4 22.5 0.00 22.10 0.51 42 1010.2
20260502003831 18 43 4.8 19.3 0.00 22.10 0.51 44 1010.3
20260502003312 18 20 6.4 20.9 0.00 22.10 0.51 43 1010.2
20260502002848 18 30 11.3 22.5 0.00 22.10 0.51 42 1010.0
20260502002327 17 67 11.3 27.4 0.00 22.10 0.51 44 1009.8
20260502001827 17 84 9.7 32.2 0.00 23.90 0.51 44 1009.9
20260502001326 17 55 14.5 32.2 0.00 23.90 0.51 43 1009.8
20260502000846 17 53 4.8 24.1 0.00 23.90 0.51 45 1009.8
20260502000324 17 67 11.3 24.1 0.00 23.90 0.51 45 1009.8
20260501235821 17 59 9.7 20.9 0.00 23.90 0.51 45 1009.9
20260501235340 16 54 3.2 8.0 0.00 23.90 0.51 52 1009.7
20260501234818 16 43 1.6 6.4 0.00 23.90 0.51 54 1009.8
20260501234317 16 287 0.0 1.6 0.00 23.90 0.51 56 1009.6
20260501233814 15 58 0.0 0.0 0.00 23.90 0.51 58 1009.6
20260501233314 15 58 0.0 3.2 0.00 23.90 0.51 63 1009.7
20260501232813 15 49 0.0 3.2 0.00 23.90 0.51 63 1009.6
20260501232333 15 233 0.0 3.2 0.00 23.90 0.51 62 1009.7
20260501231832 15 346 0.0 3.2 0.00 24.10 0.51 62 1009.6
20260501231330 15 246 0.0 4.8 0.00 24.10 0.51 64 1009.6
20260501230849 15 231 0.0 6.4 0.00 24.10 0.51 62 1009.4
20260501230348 15 353 1.6 6.4 0.00 24.10 0.51 61 1009.5
20260501225846 15 63 0.0 4.8 0.00 24.10 0.51 64 1009.3
20260501225324 14 63 0.0 6.4 0.00 24.10 0.51 68 1009.2
20260501224822 14 356 3.2 6.4 0.00 24.10 0.51 66 1009.4
20260501224322 14 335 0.0 1.6 0.00 24.10 0.51 63 1009.3
20260501223841 13 342 0.0 1.6 0.00 24.10 0.51 68 1009.4
20260501223340 13 210 0.0 1.6 0.00 24.10 0.51 69 1009.4
20260501222817 13 333 0.0 1.6 0.00 24.10 0.51 69 1009.2
20260501222316 13 233 0.0 1.6 0.00 24.10 0.51 71 1009.2
20260501221817 13 64 0.0 1.6 0.00 24.79 0.51 70 1009.1
20260501221315 12 55 0.0 0.0 0.00 24.79 0.51 74 1009.3
20260501220833 12 55 0.0 0.0 0.00 24.79 0.51 77 1009.2
20260501220332 12 51 0.0 1.6 0.00 24.79 0.51 75 1009.1
20260501215831 12 51 0.0 3.2 0.00 24.79 0.51 78 1008.9
20260501215331 12 51 1.6 3.2 0.00 24.79 0.51 79 1008.9
20260501214829 11 255 0.0 1.6 0.00 24.79 0.51 81 1008.7
20260501214328 11 238 0.0 0.0 0.00 24.79 0.51 80 1008.6
20260501213825 11 238 0.0 0.0 0.00 24.79 0.51 81 1008.5
20260501213343 11 238 0.0 0.0 0.00 24.79 0.51 80 1008.5
20260501212821 11 238 0.0 3.2 0.00 24.79 0.51 80 1008.4
20260501212340 11 238 0.0 3.2 0.00 24.79 0.51 78 1008.5
20260501211818 11 353 0.0 1.6 0.00 24.79 0.51 78 1008.4
20260501211336 11 355 0.0 1.6 0.00 24.79 0.51 79 1008.4
20260501210813 11 354 0.0 6.4 0.00 24.79 0.51 80 1008.1
20260501210333 11 239 3.2 6.4 0.00 24.79 0.51 78 1008.2
20260501205831 11 195 0.0 3.2 0.00 24.79 0.51 78 1007.8
20260501205350 11 197 1.6 3.2 0.00 24.79 0.51 79 1007.7
20260501204826 11 199 0.0 1.6 0.00 24.79 0.51 80 1007.6
20260501204324 10 204 0.0 3.2 0.00 24.79 0.51 80 1007.6
20260501203823 10 212 0.0 3.2 0.00 24.79 0.51 79 1007.7
20260501203321 11 217 1.6 3.2 0.00 24.79 0.51 77 1007.8
20260501202823 11 56 0.0 8.0 0.00 24.79 0.51 76 1007.7
20260501202322 11 56 1.6 12.9 0.00 24.79 0.51 75 1007.5
20260501201842 10 4 3.2 8.0 0.00 24.79 0.51 78 1007.5
20260501201320 11 108 0.0 1.6 0.00 24.79 0.51 79 1007.4
20260501200818 11 195 0.0 3.2 0.00 24.79 0.51 76 1007.5
20260501200315 11 70 1.6 8.0 0.00 24.79 0.51 76 1007.3
20260501195812 11 38 3.2 8.0 0.00 24.79 0.51 77 1007.5
20260501195333 11 20 3.2 9.7 0.00 24.79 0.51 77 1007.4